FM-6

Last updated on Wed Mar 11 2026 00:02:53 GMT+0000 (Coordinated Universal Time)

1 39360U 13058A 26069.44280792 -.00000015 00000+0 00000+0 0 9992 2 39360 0.0177 143.2940 0003135 46.5785 21.4859 1.00269844 45088
UTC large
Height (km)
Speed (km/s)
/
Latitude / Longitude
Inclination (degrees)
Orbital Period (minutes)
Azimuth
Elevation
Range (km)
Doppler Factor

Next 0 passes for location: London (51.5072 / 0.1276)

Sorry there are no passes over London.